Regional Weather Roundup
Issued by NWS

Home | Current Version | Previous Version | Graphics & Text | Print | Product List | Glossary On
Versions: 1 2 3 4 5 6 7 8 9 10 11 12 13 14 15 16 17 18 19 20 21 22 23 24 25 26 27 28 29 30 31 32 33 34 35 36 37 38 39 40 41 42 43 44 45 46 47 48 49 50
000
ASUS43 KOAX 241002
RWRNE

WEATHER ROUNDUP FOR NEBRASKA
NATIONAL WEATHER SERVICE OMAHA NE
400 AM CST TUE JAN 24 2017

NOTES: SATELLITE DATA IS BEING USED TO AUGMENT CLOUD COVER ABOVE
       12000 FEET.
       "FAIR" INDICATES FEW OR NO CLOUDS BELOW 12,000 FEET WITH NO
       SIGNIFICANT WEATHER AND/OR OBSTRUCTIONS TO VISIBILITY.

  * THESE STATIONS DO NOT REPORT WEATHER SUCH AS RAIN...SNOW OR FOG.

NEZ001>004-019>022-054>056-241100-
NEBRASKA PANHANDLE

CITY           SKY/WX    TMP DP  RH WIND       PRES   REMARKS
SCOTTSBLUFF    LGT SNOW  25  20  81 NE17      29.58F WCI  12
ALLIANCE       SNOW      24  22  91 N15       29.58F VSB 1/2 WCI  11
CHADRON        FOG       23  21  92 N8        29.68S VSB 3/4 WCI  14
KIMBALL        CLOUDY    28  28 100 N9        29.52R WCI  20
SIDNEY         CLOUDY    28  26  92 N16       29.53S WCI  16
$$

NEZ057>060-069>072-079>082-241100-
SOUTHWEST NEBRASKA

CITY           SKY/WX    TMP DP  RH WIND       PRES   REMARKS
NORTH PLATTE   CLOUDY    32  30  92 E10       29.57R WCI  24
IMPERIAL       CLOUDY    32  29  88 E9        29.50S WCI  24
LEXINGTON      FOG       32  32  98 E14       29.56F VSB 3/4 WCI  22
MCCOOK         CLOUDY    32  31  96 E15       29.50F FOG     WCI  22
OGALLALA       CLOUDY    32  32  99 NE8       29.55R FOG     WCI  25
$$

NEZ005>010-023>029-035>040-094-241100-
NORTH CENTRAL NEBRASKA

CITY           SKY/WX    TMP DP  RH WIND       PRES   REMARKS
VALENTINE      CLOUDY    30  28  92 NE6       29.67S FOG     WCI  24
AINSWORTH      FOG       31  31 100 CALM      29.67S VSB 1/2
BROKEN BOW     FOG       31  31 100 E13G23    29.61F VSB 1/4 WCI  21
O`NEILL        FOG       31  31 100 E7        29.70F VSB 3/4 WCI  24
ORD            FOG       31  29  92 E10       29.64F VSB 1/2 WCI  22
THEDFORD       FOG       32  31  99 E9        29.62S VSB 3/4 WCI  24
$$

NEZ041-046>049-061>064-073>077-083>087-241100-
SOUTH CENTRAL NEBRASKA

CITY           SKY/WX    TMP DP  RH WIND       PRES   REMARKS
GRAND ISLAND   CLOUDY    31  31 100 E14       29.65F FOG     WCI  21
AURORA         CLOUDY    31  31 100 E15       29.66F FOG     WCI  20
HASTINGS       CLOUDY    32  30  92 E10       29.65R FOG     WCI  24
HEBRON         CLOUDY    32  32 100 E10       29.65F FOG     WCI  24
HOLDREGE       CLOUDY    32  32  99 E16       29.55F FOG     WCI  21
KEARNEY *      CLOUDY    32  28  86 E16       29.60F WCI  21
YORK           CLOUDY    32  32 100 E16       29.68F FOG     WCI  21
$$

NEZ011>018-030>034-042>045-241100-
NORTHEAST NEBRASKA

CITY           SKY/WX    TMP DP  RH WIND       PRES   REMARKS
NORFOLK        CLOUDY    29  27  92 E12       29.73F FOG     WCI  19
ALBION         CLOUDY    32  30  93 E13       29.70F FOG     WCI  22
BLAIR          CLOUDY    30  30  98 E10       29.76F FOG     WCI  21
FREMONT        CLOUDY    31  31 100 E9        29.77F FOG     WCI  22
TEKAMAH        CLOUDY    31  28  89 E10       29.80F WCI  22
WAYNE          CLOUDY    31  30  97 E9        29.76F FOG     WCI  23
$$

NEZ050>053-065>068-078-088>093-241100-
SOUTHEAST NEBRASKA

CITY           SKY/WX    TMP DP  RH WIND       PRES   REMARKS
LINCOLN        CLOUDY    31  29  92 E10       29.76F FOG     WCI  22
OMAHA EPPLEY   CLOUDY    31  26  82 E8        29.79F WCI  23
BEATRICE       CLOUDY    32  31  96 E12       29.71F FOG     WCI  23
FALLS CITY     CLOUDY    30  28  92 E14       29.75F WCI  19
NEBRASKA CITY  CLOUDY    30  30 100 SE10      29.79R FOG     WCI  21
PLATTSMOUTH    FOG       30  28  91 E10       29.76F VSB 1/2 WCI  21
$$

NEZ044-045-051>053-067-241100-
OMAHA AREA

CITY           SKY/WX    TMP DP  RH WIND       PRES   REMARKS
OMAHA EPPLEY   CLOUDY    31  26  82 E8        29.79F WCI  23
BLAIR          CLOUDY    30  30  98 E10       29.76F FOG     WCI  21
FREMONT        CLOUDY    31  31 100 E9        29.77F FOG     WCI  22
MILLARD        CLOUDY    32  31  96 E6        29.78F FOG     WCI  26
OFFUTT AFB     CLOUDY    30  30 100 E9        29.77F WCI  21
PLATTSMOUTH    FOG       30  28  91 E10       29.76F VSB 1/2 WCI  21
WAHOO          CLOUDY    31  30  96 E13       29.76F FOG     WCI  21
$$




USA.gov is the U.S. government's official web portal to all federal, state and local government web resources and services.